Location: Sagn�
(15.2046°N, 12.7898°W)
Time: 13:49:28
(UTC+00:00)

NOSS 3-1 (C) - Pass Details

Date: 08 May 2021
Orbit: 732 x 1476 km, 63.4° (Epoch: 18 April)

Event Time Altitude Azimuth Distance (km) Brightness Sun altitude
Rises 20:11:50 0° 338° (NNW) 4,281 7.6 -14.6°
Reaches altitude 10° 20:14:34 10° 340° (NNW) 3,390 6.9 -15.2°
Maximum altitude 20:23:06 77° 66° (ENE) 1,485 4.3 -17.1°
Enters shadow 20:30:22 18° 150° (SSE) 3,027 5.6 -18.7°
